Regional Weather Roundup
Issued by NWS Raleigh/Durham, NC

Current Version | Previous Version | Text Only | Print | Product List | Glossary On
Versions: 1 2 3 4 5 6 7 8 9 10 11 12 13 14 15 16 17 18 19 20 21 22 23 24 25 26 27 28 29 30
000 ASUS42 KRAH 211410 RWRRAH NORTH CAROLINA WEATHER ROUNDUP NATIONAL WEATHER SERVICE RALEIGH NC 900 AM EST TUE FEB 21 2017 NOTE: "FAIR" INDICATES FEW OR NO CLOUDS BELOW 12,000 FEET WITH NO SIGNIFICANT WEATHER AND/OR OBSTRUCTIONS TO VISIBILITY. NCZ001-053-055-056-065-067-211500- WESTERN NORTH CAROLINA CITY SKY/WX TMP DP RH WIND PRES REMARKS ASHEVILLE MOSUNNY 43 36 76 SE3 30.22S JEFFERSON MOSUNNY 44 35 72 S3 30.23F HICKORY MOSUNNY 50 43 77 NE5 30.24R RUTHERFORDTON NOT AVBL MOUNT AIRY NOT AVBL $$ NCZ021-022-025-041-071-084-088-211500- CENTRAL NORTH CAROLINA CITY SKY/WX TMP DP RH WIND PRES REMARKS CHARLOTTE CLOUDY 54 41 61 SE9 30.24S GREENSBORO CLOUDY 49 38 65 E7 30.26F WINSTON-SALEM CLOUDY 48 38 68 NE5 30.28S RALEIGH-DURHAM CLOUDY 50 37 61 E6 30.29R FORT BRAGG CLOUDY 49 41 74 E8 30.26S FAYETTEVILLE CLOUDY 51 42 71 NE6 30.26S $$ NCZ011-015-027-028-043-044-047-080-103-211500- NORTHEASTERN NORTH CAROLINA CITY SKY/WX TMP DP RH WIND PRES REMARKS ROANOKE RAPIDS FAIR 46 39 76 NE5 30.32S ROCKY MT-WILSO MOSUNNY 50 42 74 NE7 30.30F GREENVILLE MOSUNNY 50 43 76 NE6 30.30F WASHINGTON PTSUNNY 48 42 80 NE6 30.30R ELIZABETH CITY NOT AVBL MANTEO CLOUDY 52 41 66 E16 30.29F CAPE HATTERAS CLOUDY 57 48 72 NE8 30.26S $$ NCZ078-087-090-091-093-098-101-211500- SOUTHEASTERN NORTH CAROLINA CITY SKY/WX TMP DP RH WIND PRES REMARKS LUMBERTON LGT RAIN 53 45 74 E8 30.25S GOLDSBORO CLOUDY 50 43 78 E12 30.26F KINSTON CLOUDY 50 43 76 NE8 30.29F NEW BERN PTSUNNY 49 43 80 NE6 30.29S CHERRY POINT MOSUNNY 53 44 71 NE9 30.27F BEAUFORT MOSUNNY 55 47 74 NE8G18 30.26S JACKSONVILLE PTSUNNY 51 44 77 NE6 30.26F WILMINGTON MOSUNNY 53 45 74 E10 30.25S $$

USA.gov is the U.S. government's official web portal to all federal, state and local government web resources and services.